Year,Month,Day,Hour,Minute,Value (Times are PST for windgust in km/hr)
2010,10,26,00,00,17.70
2010,10,26,00,01,19.30
2010,10,26,00,02,19.30
2010,10,26,00,03,24.20
2010,10,26,00,04,12.90
2010,10,26,00,05,19.30
2010,10,26,00,06,14.50
2010,10,26,00,07,16.10
2010,10,26,00,08,19.30
2010,10,26,00,09,17.70
2010,10,26,00,10,19.30
2010,10,26,00,11,17.70
2010,10,26,00,12,16.10
2010,10,26,00,13,17.70
2010,10,26,00,14,19.30
2010,10,26,00,15,17.70
2010,10,26,00,16,19.30
2010,10,26,00,17,17.70
2010,10,26,00,18,17.70
2010,10,26,00,19,16.10
2010,10,26,00,20,14.50
2010,10,26,00,21,16.10
2010,10,26,00,22,17.70
2010,10,26,00,23,11.30
2010,10,26,00,24,14.50
2010,10,26,00,25,16.10
2010,10,26,00,26,20.90
2010,10,26,00,27,12.90
2010,10,26,00,28,14.50
2010,10,26,00,29,12.90
2010,10,26,00,30,17.70
2010,10,26,00,31,20.90
2010,10,26,00,32,12.90
2010,10,26,00,33,27.40
2010,10,26,00,34,20.90
2010,10,26,00,35,17.70
2010,10,26,00,36,19.30
2010,10,26,00,37,17.70
2010,10,26,00,38,12.90
2010,10,26,00,39,16.10
2010,10,26,00,40,14.50
2010,10,26,00,41,19.30
2010,10,26,00,42,19.30
2010,10,26,00,43,19.30
2010,10,26,00,44,14.50
2010,10,26,00,45,14.50
2010,10,26,00,46,24.20
2010,10,26,00,47,20.90
2010,10,26,00,48,22.50
2010,10,26,00,49,20.90
2010,10,26,00,50,19.30
2010,10,26,00,51,22.50
2010,10,26,00,52,22.50
2010,10,26,00,53,25.70
2010,10,26,00,54,16.10
2010,10,26,00,55,20.90
2010,10,26,00,56,19.30
2010,10,26,00,57,11.30
2010,10,26,00,58,25.70
2010,10,26,00,59,20.90
2010,10,26,01,00,22.50
2010,10,26,01,01,25.70
2010,10,26,01,02,16.10
2010,10,26,01,03,22.50
2010,10,26,01,04,22.50
2010,10,26,01,05,30.60
2010,10,26,01,06,24.20
2010,10,26,01,07,29.00
2010,10,26,01,08,27.40
2010,10,26,01,09,22.50
2010,10,26,01,10,32.20
2010,10,26,01,11,16.10
2010,10,26,01,12,29.00
2010,10,26,01,13,20.90
2010,10,26,01,14,19.30
2010,10,26,01,15,20.90
2010,10,26,01,16,17.70
2010,10,26,01,17,17.70
2010,10,26,01,18,30.60
2010,10,26,01,19,19.30
2010,10,26,01,20,22.50
2010,10,26,01,21,17.70
2010,10,26,01,22,19.30
2010,10,26,01,23,20.90
2010,10,26,01,24,25.70
2010,10,26,01,25,30.60
2010,10,26,01,26,19.30
2010,10,26,01,27,20.90
2010,10,26,01,28,30.60
2010,10,26,01,29,22.50
2010,10,26,01,30,20.90
2010,10,26,01,31,20.90
2010,10,26,01,32,22.50
2010,10,26,01,33,25.70
2010,10,26,01,34,20.90
2010,10,26,01,35,22.50
2010,10,26,01,36,24.20
2010,10,26,01,37,27.40
2010,10,26,01,38,19.30
2010,10,26,01,39,14.50
2010,10,26,01,40,20.90
2010,10,26,01,41,25.70
2010,10,26,01,42,19.30
2010,10,26,01,43,20.90
2010,10,26,01,44,19.30
2010,10,26,01,45,16.10
2010,10,26,01,46,16.10
2010,10,26,01,47,17.70
2010,10,26,01,48,22.50
2010,10,26,01,49,19.30
2010,10,26,01,50,19.30
2010,10,26,01,51,19.30
2010,10,26,01,52,17.70
2010,10,26,01,53,25.70
2010,10,26,01,54,24.20
2010,10,26,01,55,27.40
2010,10,26,01,56,19.30
2010,10,26,01,57,19.30
2010,10,26,01,58,11.30
2010,10,26,01,59,20.90
2010,10,26,02,00,24.20
2010,10,26,02,01,20.90
2010,10,26,02,02,22.50
2010,10,26,02,03,22.50
2010,10,26,02,04,16.10
2010,10,26,02,05,17.70
2010,10,26,02,06,14.50
2010,10,26,02,07,19.30
2010,10,26,02,08,14.50
2010,10,26,02,09,22.50
2010,10,26,02,10,17.70
2010,10,26,02,11,20.90
2010,10,26,02,12,22.50
2010,10,26,02,13,20.90
2010,10,26,02,14,22.50
2010,10,26,02,15,24.20
2010,10,26,02,16,19.30
2010,10,26,02,17,20.90
2010,10,26,02,18,22.50
2010,10,26,02,19,16.10
2010,10,26,02,20,19.30
2010,10,26,02,21,14.50
2010,10,26,02,22,14.50
2010,10,26,02,23,17.70
2010,10,26,02,24,17.70
2010,10,26,02,25,16.10
2010,10,26,02,26,17.70
2010,10,26,02,27,20.90
2010,10,26,02,28,17.70
2010,10,26,02,29,19.30
2010,10,26,02,30,12.90
2010,10,26,02,31,17.70
2010,10,26,02,32,19.30
2010,10,26,02,33,19.30
2010,10,26,02,34,16.10
2010,10,26,02,35,32.20
2010,10,26,02,36,16.10
2010,10,26,02,37,16.10
2010,10,26,02,38,14.50
2010,10,26,02,39,20.90
2010,10,26,02,40,17.70
2010,10,26,02,41,22.50
2010,10,26,02,42,24.20
2010,10,26,02,43,14.50
2010,10,26,02,44,25.70
2010,10,26,02,45,25.70
2010,10,26,02,46,24.20
2010,10,26,02,47,22.50
2010,10,26,02,48,24.20
2010,10,26,02,49,19.30
2010,10,26,02,50,20.90
2010,10,26,02,51,19.30
2010,10,26,02,52,19.30
2010,10,26,02,53,16.10
2010,10,26,02,54,16.10
2010,10,26,02,55,25.70
2010,10,26,02,56,22.50
2010,10,26,02,57,12.90
2010,10,26,02,58,14.50
2010,10,26,02,59,14.50
2010,10,26,03,00,14.50
2010,10,26,03,01,19.30
2010,10,26,03,02,17.70
2010,10,26,03,03,27.40
2010,10,26,03,04,25.70
2010,10,26,03,05,14.50
2010,10,26,03,06,25.70
2010,10,26,03,07,19.30
2010,10,26,03,08,29.00
2010,10,26,03,09,17.70
2010,10,26,03,10,20.90
2010,10,26,03,11,17.70
2010,10,26,03,12,22.50
2010,10,26,03,13,22.50
2010,10,26,03,14,22.50
2010,10,26,03,15,20.90
2010,10,26,03,16,17.70
2010,10,26,03,17,19.30
2010,10,26,03,18,14.50
2010,10,26,03,19,20.90
2010,10,26,03,20,22.50
2010,10,26,03,21,24.20
2010,10,26,03,22,22.50
2010,10,26,03,23,12.90
2010,10,26,03,24,19.30
2010,10,26,03,25,14.50
2010,10,26,03,26,19.30
2010,10,26,03,27,17.70
2010,10,26,03,28,16.10
2010,10,26,03,29,12.90
2010,10,26,03,30,16.10
2010,10,26,03,31,19.30
2010,10,26,03,32,20.90
2010,10,26,03,33,17.70
2010,10,26,03,34,19.30
2010,10,26,03,35,16.10
2010,10,26,03,36,17.70
2010,10,26,03,37,16.10
2010,10,26,03,38,20.90
2010,10,26,03,39,14.50
2010,10,26,03,40,11.30
2010,10,26,03,41,22.50
2010,10,26,03,42,14.50
2010,10,26,03,43,17.70
2010,10,26,03,44,14.50
2010,10,26,03,45,17.70
2010,10,26,03,46,17.70
2010,10,26,03,47,24.20
2010,10,26,03,48,14.50
2010,10,26,03,49,22.50
2010,10,26,03,50,16.10
2010,10,26,03,51,20.90
2010,10,26,03,52,20.90
2010,10,26,03,53,11.30
2010,10,26,03,54,17.70
2010,10,26,03,55,22.50
2010,10,26,03,56,12.90
2010,10,26,03,57,16.10
2010,10,26,03,58,16.10
2010,10,26,03,59,16.10
2010,10,26,04,00,22.50
2010,10,26,04,01,19.30
2010,10,26,04,02,17.70
2010,10,26,04,03,17.70
2010,10,26,04,04,27.40
2010,10,26,04,05,29.00
2010,10,26,04,06,22.50
2010,10,26,04,07,19.30
2010,10,26,04,08,25.70
2010,10,26,04,09,29.00
2010,10,26,04,10,25.70
2010,10,26,04,11,19.30
2010,10,26,04,12,19.30
2010,10,26,04,13,19.30
2010,10,26,04,14,24.20
2010,10,26,04,15,24.20
2010,10,26,04,16,24.20
2010,10,26,04,17,17.70
2010,10,26,04,18,22.50
2010,10,26,04,19,22.50
2010,10,26,04,20,22.50
2010,10,26,04,21,12.90
2010,10,26,04,22,16.10
2010,10,26,04,23,16.10
2010,10,26,04,24,14.50
2010,10,26,04,25,12.90
2010,10,26,04,26,17.70
2010,10,26,04,27,19.30
2010,10,26,04,28,16.10
2010,10,26,04,29,24.20
2010,10,26,04,30,16.10
2010,10,26,04,31,19.30
2010,10,26,04,32,22.50
2010,10,26,04,33,19.30
2010,10,26,04,34,16.10
2010,10,26,04,35,17.70
2010,10,26,04,36,19.30
2010,10,26,04,37,20.90
2010,10,26,04,38,29.00
2010,10,26,04,39,19.30
2010,10,26,04,40,24.20
2010,10,26,04,41,20.90
2010,10,26,04,42,20.90
2010,10,26,04,43,25.70
2010,10,26,04,44,17.70
2010,10,26,04,45,19.30
2010,10,26,04,46,17.70
2010,10,26,04,47,22.50
2010,10,26,04,48,24.20
2010,10,26,04,49,19.30
2010,10,26,04,50,17.70
2010,10,26,04,51,25.70
2010,10,26,04,52,25.70
2010,10,26,04,53,22.50
2010,10,26,04,54,12.90
2010,10,26,04,55,20.90
2010,10,26,04,56,20.90
2010,10,26,04,57,22.50
2010,10,26,04,58,19.30
2010,10,26,04,59,19.30
2010,10,26,05,00,19.30
2010,10,26,05,01,19.30
2010,10,26,05,02,16.10
2010,10,26,05,03,14.50
2010,10,26,05,04,19.30
2010,10,26,05,05,22.50
2010,10,26,05,06,22.50
2010,10,26,05,07,20.90
2010,10,26,05,08,20.90
2010,10,26,05,09,19.30
2010,10,26,05,10,19.30
2010,10,26,05,11,17.70
2010,10,26,05,12,16.10
2010,10,26,05,13,16.10
2010,10,26,05,14,11.30
2010,10,26,05,15,17.70
2010,10,26,05,16,12.90
2010,10,26,05,17,20.90
2010,10,26,05,18,17.70
2010,10,26,05,19,14.50
2010,10,26,05,20,12.90
2010,10,26,05,21,16.10
2010,10,26,05,22,16.10
2010,10,26,05,23,12.90
2010,10,26,05,24,17.70
2010,10,26,05,25,12.90
2010,10,26,05,26,19.30
2010,10,26,05,27,19.30
2010,10,26,05,28,19.30
2010,10,26,05,29,14.50
2010,10,26,05,30,17.70
2010,10,26,05,31,17.70
2010,10,26,05,32,11.30
2010,10,26,05,33,19.30
2010,10,26,05,34,20.90
2010,10,26,05,35,22.50
2010,10,26,05,36,20.90
2010,10,26,05,37,11.30
2010,10,26,05,38,14.50
2010,10,26,05,39,20.90
2010,10,26,05,40,16.10
2010,10,26,05,41,16.10
2010,10,26,05,42,12.90
2010,10,26,05,43,22.50
2010,10,26,05,44,17.70
2010,10,26,05,45,27.40
2010,10,26,05,46,25.70
2010,10,26,05,47,20.90
2010,10,26,05,48,12.90
2010,10,26,05,49,24.20
2010,10,26,05,50,27.40
2010,10,26,05,51,24.20
2010,10,26,05,52,25.70
2010,10,26,05,53,19.30
2010,10,26,05,54,25.70
2010,10,26,05,55,22.50
2010,10,26,05,56,20.90
2010,10,26,05,57,17.70
2010,10,26,05,58,22.50
2010,10,26,05,59,25.70
2010,10,26,06,00,19.30
2010,10,26,06,01,16.10
2010,10,26,06,02,24.20
2010,10,26,06,03,14.50
2010,10,26,06,04,24.20
2010,10,26,06,05,16.10
2010,10,26,06,06,16.10
2010,10,26,06,07,24.20
2010,10,26,06,08,20.90
2010,10,26,06,09,14.50
2010,10,26,06,10,24.20
2010,10,26,06,11,16.10
2010,10,26,06,12,17.70
2010,10,26,06,13,12.90
2010,10,26,06,14,14.50
2010,10,26,06,15,14.50
2010,10,26,06,16,16.10
2010,10,26,06,17,19.30
2010,10,26,06,18,11.30
2010,10,26,06,19,14.50
2010,10,26,06,20,14.50
2010,10,26,06,21,16.10
2010,10,26,06,22,9.60
2010,10,26,06,23,20.90
2010,10,26,06,24,16.10
2010,10,26,06,25,17.70
2010,10,26,06,26,16.10
2010,10,26,06,27,17.70
2010,10,26,06,28,14.50
2010,10,26,06,29,11.30
2010,10,26,06,30,12.90
2010,10,26,06,31,19.30
2010,10,26,06,32,11.30
2010,10,26,06,33,8.10
2010,10,26,06,34,16.10
2010,10,26,06,35,14.50
2010,10,26,06,36,14.50
2010,10,26,06,37,22.50
2010,10,26,06,38,17.70
2010,10,26,06,39,14.50
2010,10,26,06,40,16.10
2010,10,26,06,41,17.70
2010,10,26,06,42,14.50
2010,10,26,06,43,8.10
2010,10,26,06,44,12.90
2010,10,26,06,45,9.60
2010,10,26,06,46,24.20
2010,10,26,06,47,12.90
2010,10,26,06,48,12.90
2010,10,26,06,49,12.90
2010,10,26,06,50,9.60
2010,10,26,06,51,9.60
2010,10,26,06,52,16.10
2010,10,26,06,53,17.70
2010,10,26,06,54,17.70
2010,10,26,06,55,12.90
2010,10,26,06,56,11.30
2010,10,26,06,57,20.90
2010,10,26,06,58,12.90
2010,10,26,06,59,9.60
2010,10,26,07,00,11.30
2010,10,26,07,01,11.30
2010,10,26,07,02,11.30
2010,10,26,07,03,16.10
2010,10,26,07,04,12.90
2010,10,26,07,05,9.60
2010,10,26,07,06,14.50
2010,10,26,07,07,11.30
2010,10,26,07,08,12.90
2010,10,26,07,09,9.60
2010,10,26,07,10,9.60
2010,10,26,07,11,12.90
2010,10,26,07,12,12.90
2010,10,26,07,13,19.30
2010,10,26,07,14,11.30
2010,10,26,07,15,11.30
2010,10,26,07,16,8.10
2010,10,26,07,17,12.90
2010,10,26,07,18,17.70
2010,10,26,07,19,14.50
2010,10,26,07,20,11.30
2010,10,26,07,21,14.50
2010,10,26,07,22,11.30
2010,10,26,07,23,12.90
2010,10,26,07,24,9.60
2010,10,26,07,25,8.10
2010,10,26,07,26,9.60
2010,10,26,07,27,9.60
2010,10,26,07,28,6.40
2010,10,26,07,29,16.10
2010,10,26,07,30,16.10
2010,10,26,07,31,9.60
2010,10,26,07,32,12.90
2010,10,26,07,33,12.90
2010,10,26,07,34,9.60
2010,10,26,07,35,8.10
2010,10,26,07,36,6.40
2010,10,26,07,37,9.60
2010,10,26,07,38,6.40
2010,10,26,07,39,19.30
2010,10,26,07,40,16.10
2010,10,26,07,41,6.40
2010,10,26,07,42,8.10
2010,10,26,07,43,14.50
2010,10,26,07,44,9.60
2010,10,26,07,45,11.30
2010,10,26,07,46,6.40
2010,10,26,07,47,3.20
2010,10,26,07,48,8.10
2010,10,26,07,49,9.60
2010,10,26,07,50,9.60
2010,10,26,07,51,8.10
2010,10,26,07,52,9.60
2010,10,26,07,53,8.10
2010,10,26,07,54,11.30
2010,10,26,07,55,3.20
2010,10,26,07,56,11.30
2010,10,26,07,57,9.60
2010,10,26,07,58,6.40
2010,10,26,07,59,22.50
2010,10,26,08,00,11.30
2010,10,26,08,01,8.10
2010,10,26,08,02,6.40
2010,10,26,08,03,12.90
2010,10,26,08,04,9.60
2010,10,26,08,05,6.40
2010,10,26,08,06,9.60
2010,10,26,08,07,11.30
2010,10,26,08,08,8.10
2010,10,26,08,09,8.10
2010,10,26,08,10,12.90
2010,10,26,08,11,11.30
2010,10,26,08,12,9.60
2010,10,26,08,13,8.10
2010,10,26,08,14,8.10
2010,10,26,08,15,11.30
2010,10,26,08,16,9.60
2010,10,26,08,17,11.30
2010,10,26,08,18,1.60
2010,10,26,08,19,8.10
2010,10,26,08,20,11.30
2010,10,26,08,21,8.10
2010,10,26,08,22,9.60
2010,10,26,08,23,8.10
2010,10,26,08,24,9.60
2010,10,26,08,25,11.30
2010,10,26,08,26,8.10
2010,10,26,08,27,9.60
2010,10,26,08,28,6.40
2010,10,26,08,29,9.60
2010,10,26,08,30,6.40
2010,10,26,08,31,8.10
2010,10,26,08,32,11.30
2010,10,26,08,33,8.10
2010,10,26,08,34,8.10
2010,10,26,08,35,9.60
2010,10,26,08,36,8.10
2010,10,26,08,37,8.10
2010,10,26,08,38,6.40
2010,10,26,08,39,8.10
2010,10,26,08,40,8.10
2010,10,26,08,41,8.10
2010,10,26,08,42,8.10
2010,10,26,08,43,6.40
2010,10,26,08,44,9.60
2010,10,26,08,45,8.10
2010,10,26,08,46,6.40
2010,10,26,08,47,9.60
2010,10,26,08,48,9.60
2010,10,26,08,49,3.20
2010,10,26,08,50,6.40
2010,10,26,08,51,9.60
2010,10,26,08,52,8.10
2010,10,26,08,53,11.30
2010,10,26,08,54,11.30
2010,10,26,08,55,6.40
2010,10,26,08,56,8.10
2010,10,26,08,57,6.40
2010,10,26,08,58,8.10
2010,10,26,08,59,8.10
2010,10,26,09,00,6.40
2010,10,26,09,01,6.40
2010,10,26,09,02,8.10
2010,10,26,09,03,8.10
2010,10,26,09,04,8.10
2010,10,26,09,05,8.10
2010,10,26,09,06,9.60
2010,10,26,09,07,8.10
2010,10,26,09,08,14.50
2010,10,26,09,09,11.30
2010,10,26,09,10,8.10
2010,10,26,09,11,8.10
2010,10,26,09,12,8.10
2010,10,26,09,13,6.40
2010,10,26,09,14,8.10
2010,10,26,09,15,9.60
2010,10,26,09,16,11.30
2010,10,26,09,17,11.30
2010,10,26,09,18,6.40
2010,10,26,09,19,3.20
2010,10,26,09,20,9.60
2010,10,26,09,21,8.10
2010,10,26,09,22,9.60
2010,10,26,09,23,6.40
2010,10,26,09,24,3.20
2010,10,26,09,25,8.10
2010,10,26,09,26,14.50
2010,10,26,09,27,9.60
2010,10,26,09,28,8.10
2010,10,26,09,29,8.10
2010,10,26,09,30,9.60
2010,10,26,09,31,8.10
2010,10,26,09,32,8.10
2010,10,26,09,33,3.20
2010,10,26,09,34,9.60
2010,10,26,09,35,9.60
2010,10,26,09,36,8.10
2010,10,26,09,37,9.60
2010,10,26,09,38,11.30
2010,10,26,09,39,8.10
2010,10,26,09,40,9.60
2010,10,26,09,41,9.60
2010,10,26,09,42,3.20
2010,10,26,09,43,8.10
2010,10,26,09,44,9.60
2010,10,26,09,45,9.60
2010,10,26,09,46,11.30
2010,10,26,09,47,11.30
2010,10,26,09,48,9.60
2010,10,26,09,49,9.60
2010,10,26,09,50,8.10
2010,10,26,09,51,9.60
2010,10,26,09,52,19.30
2010,10,26,09,53,9.60
2010,10,26,09,54,12.90
2010,10,26,09,55,3.20
2010,10,26,09,56,3.20
2010,10,26,09,57,12.90
2010,10,26,09,58,8.10
2010,10,26,09,59,14.50
2010,10,26,10,00,11.30
2010,10,26,10,01,16.10
2010,10,26,10,02,6.40
2010,10,26,10,03,6.40
2010,10,26,10,04,3.20
2010,10,26,10,05,3.20
2010,10,26,10,06,6.40
2010,10,26,10,07,6.40
2010,10,26,10,08,11.30
2010,10,26,10,09,6.40
2010,10,26,10,10,9.60
2010,10,26,10,11,8.10
2010,10,26,10,12,9.60
2010,10,26,10,13,8.10
2010,10,26,10,14,9.60
2010,10,26,10,15,6.40
2010,10,26,10,16,6.40
2010,10,26,10,17,8.10
2010,10,26,10,18,8.10
2010,10,26,10,19,3.20
2010,10,26,10,20,3.20
2010,10,26,10,21,3.20
2010,10,26,10,22,9.60
2010,10,26,10,23,3.20
2010,10,26,10,24,3.20
2010,10,26,10,25,3.20
2010,10,26,10,32,1.60
2010,10,26,10,33,3.20
2010,10,26,10,34,1.60
2010,10,26,10,35,1.60
2010,10,26,10,36,1.60
2010,10,26,10,37,1.60
2010,10,26,10,40,1.60
2010,10,26,10,42,1.60
2010,10,26,10,43,3.20
2010,10,26,10,44,1.60
2010,10,26,10,45,1.60
2010,10,26,10,46,1.60
2010,10,26,10,48,1.60
2010,10,26,10,49,4.80
2010,10,26,10,50,4.80
2010,10,26,10,51,11.30
2010,10,26,10,52,1.60
2010,10,26,10,53,1.60
2010,10,26,10,54,3.20
2010,10,26,10,55,6.40
2010,10,26,10,56,1.60
2010,10,26,10,57,12.90
2010,10,26,10,58,12.90
2010,10,26,10,59,1.60
2010,10,26,11,00,8.10
2010,10,26,11,01,1.60
2010,10,26,11,02,1.60
2010,10,26,11,03,1.60
2010,10,26,11,04,1.60
2010,10,26,11,05,1.60
2010,10,26,11,09,1.60
2010,10,26,11,10,1.60
2010,10,26,11,11,6.40
2010,10,26,11,12,4.80
2010,10,26,11,14,3.20
2010,10,26,11,15,1.60
2010,10,26,11,16,6.40
2010,10,26,11,17,3.20
2010,10,26,11,18,3.20
2010,10,26,11,19,1.60
2010,10,26,11,21,6.40
2010,10,26,11,22,3.20
2010,10,26,11,23,3.20
2010,10,26,11,24,3.20
2010,10,26,11,26,1.60
2010,10,26,11,27,1.60
2010,10,26,11,28,3.20
2010,10,26,11,29,1.60
2010,10,26,11,30,1.60
2010,10,26,11,33,3.20
2010,10,26,11,34,1.60
2010,10,26,11,35,1.60
2010,10,26,11,36,3.20
2010,10,26,11,37,1.60
2010,10,26,11,39,3.20
2010,10,26,11,40,3.20
2010,10,26,11,41,3.20
2010,10,26,11,42,3.20
2010,10,26,11,43,1.60
2010,10,26,11,46,1.60
2010,10,26,11,47,3.20
2010,10,26,11,51,1.60
2010,10,26,11,54,3.20
2010,10,26,11,55,3.20
2010,10,26,11,56,8.10
2010,10,26,11,57,9.60
2010,10,26,11,58,1.60
2010,10,26,11,59,3.20
2010,10,26,12,00,1.60
2010,10,26,12,01,1.60
2010,10,26,12,02,1.60
2010,10,26,12,03,3.20
2010,10,26,12,04,1.60
2010,10,26,12,07,3.20
2010,10,26,12,11,1.60
2010,10,26,12,12,3.20
2010,10,26,12,13,1.60
2010,10,26,12,16,1.60
2010,10,26,12,18,1.60
2010,10,26,12,19,3.20
2010,10,26,12,20,1.60
2010,10,26,12,22,1.60
2010,10,26,12,23,6.40
2010,10,26,12,24,1.60
2010,10,26,12,25,1.60
2010,10,26,12,27,3.20
2010,10,26,12,28,1.60
2010,10,26,12,30,1.60
2010,10,26,12,31,6.40
2010,10,26,12,32,1.60
2010,10,26,12,33,1.60
2010,10,26,12,35,1.60
2010,10,26,12,38,1.60
2010,10,26,12,39,1.60
2010,10,26,12,40,1.60
2010,10,26,12,45,1.60
2010,10,26,12,49,1.60
2010,10,26,12,52,1.60
2010,10,26,12,53,1.60
2010,10,26,12,54,6.40
2010,10,26,12,55,3.20
2010,10,26,12,56,8.10
2010,10,26,12,57,8.10
2010,10,26,12,58,1.60
2010,10,26,12,59,8.10
2010,10,26,13,00,8.10
2010,10,26,13,01,3.20
2010,10,26,13,02,3.20
2010,10,26,13,03,3.20
2010,10,26,13,04,3.20
2010,10,26,13,05,1.60
2010,10,26,13,06,3.20
2010,10,26,13,07,1.60
2010,10,26,13,08,1.60
2010,10,26,13,09,1.60
2010,10,26,13,10,3.20
2010,10,26,13,11,1.60
2010,10,26,13,13,3.20
2010,10,26,13,14,1.60
2010,10,26,13,15,8.10
2010,10,26,13,16,3.20
2010,10,26,13,17,3.20
2010,10,26,13,18,6.40
2010,10,26,13,19,6.40
2010,10,26,13,20,6.40
2010,10,26,13,21,3.20
2010,10,26,13,22,1.60
2010,10,26,13,23,1.60
2010,10,26,13,24,4.80
2010,10,26,13,25,3.20
2010,10,26,13,26,8.10
2010,10,26,13,27,1.60
2010,10,26,13,29,3.20
2010,10,26,13,30,3.20
2010,10,26,13,31,1.60
2010,10,26,13,32,1.60
2010,10,26,13,34,1.60
2010,10,26,13,35,1.60
2010,10,26,13,38,3.20
2010,10,26,13,39,1.60
2010,10,26,13,40,3.20
2010,10,26,13,41,8.10
2010,10,26,13,42,9.60
2010,10,26,13,43,1.60
2010,10,26,13,44,3.20
2010,10,26,13,45,3.20
2010,10,26,13,46,1.60
2010,10,26,13,47,6.40
2010,10,26,13,48,1.60
2010,10,26,13,49,8.10
2010,10,26,13,50,3.20
2010,10,26,13,51,1.60
2010,10,26,13,52,1.60
2010,10,26,13,53,4.80
2010,10,26,13,54,6.40
2010,10,26,13,55,9.60
2010,10,26,13,56,3.20
2010,10,26,13,57,1.60
2010,10,26,13,58,11.30
2010,10,26,13,59,8.10
2010,10,26,14,00,12.90
2010,10,26,14,01,12.90
2010,10,26,14,02,4.80
2010,10,26,14,03,6.40
2010,10,26,14,04,4.80
2010,10,26,14,05,12.90
2010,10,26,14,06,9.60
2010,10,26,14,07,6.40
2010,10,26,14,08,6.40
2010,10,26,14,09,9.60
2010,10,26,14,10,11.30
2010,10,26,14,11,14.50
2010,10,26,14,12,6.40
2010,10,26,14,13,4.80
2010,10,26,14,14,6.40
2010,10,26,14,15,8.10
2010,10,26,14,16,9.60
2010,10,26,14,17,14.50
2010,10,26,14,18,8.10
2010,10,26,14,19,6.40
2010,10,26,14,20,9.60
2010,10,26,14,21,11.30
2010,10,26,14,22,11.30
2010,10,26,14,23,14.50
2010,10,26,14,24,12.90
2010,10,26,14,25,12.90
2010,10,26,14,26,11.30
2010,10,26,14,27,6.40
2010,10,26,14,28,8.10
2010,10,26,14,29,9.60
2010,10,26,14,30,12.90
2010,10,26,14,31,11.30
2010,10,26,14,32,11.30
2010,10,26,14,33,11.30
2010,10,26,14,34,11.30
2010,10,26,14,35,8.10
2010,10,26,14,36,6.40
2010,10,26,14,37,9.60
2010,10,26,14,38,6.40
2010,10,26,14,39,17.70
2010,10,26,14,40,9.60
2010,10,26,14,41,8.10
2010,10,26,14,42,9.60
2010,10,26,14,43,9.60
2010,10,26,14,44,8.10
2010,10,26,14,45,9.60
2010,10,26,14,46,9.60
2010,10,26,14,47,9.60
2010,10,26,14,48,11.30
2010,10,26,14,49,8.10
2010,10,26,14,50,11.30
2010,10,26,14,51,9.60
2010,10,26,14,52,8.10
2010,10,26,14,53,11.30
2010,10,26,14,54,14.50
2010,10,26,14,55,6.40
2010,10,26,14,56,8.10
2010,10,26,14,57,6.40
2010,10,26,14,58,6.40
2010,10,26,14,59,6.40
2010,10,26,15,00,6.40
2010,10,26,15,01,3.20
2010,10,26,15,02,8.10
2010,10,26,15,03,9.60
2010,10,26,15,04,6.40
2010,10,26,15,05,3.20
2010,10,26,15,06,3.20
2010,10,26,15,07,3.20
2010,10,26,15,08,17.70
2010,10,26,15,09,8.10
2010,10,26,15,10,9.60
2010,10,26,15,11,8.10
2010,10,26,15,12,8.10
2010,10,26,15,13,6.40
2010,10,26,15,14,8.10
2010,10,26,15,15,6.40
2010,10,26,15,16,1.60
2010,10,26,15,17,6.40
2010,10,26,15,18,1.60
2010,10,26,15,19,3.20
2010,10,26,15,20,6.40
2010,10,26,15,21,6.40
2010,10,26,15,22,3.20
2010,10,26,15,23,1.60
2010,10,26,15,24,6.40
2010,10,26,15,25,3.20
2010,10,26,15,26,8.10
2010,10,26,15,27,3.20
2010,10,26,15,28,6.40
2010,10,26,15,29,3.20
2010,10,26,15,30,1.60
2010,10,26,15,31,6.40
2010,10,26,15,32,6.40
2010,10,26,15,33,6.40
2010,10,26,15,34,3.20
2010,10,26,15,36,1.60
2010,10,26,15,37,6.40
2010,10,26,15,38,3.20
2010,10,26,15,39,6.40
2010,10,26,15,40,3.20
2010,10,26,15,41,3.20
2010,10,26,15,42,3.20
2010,10,26,15,43,3.20
2010,10,26,15,44,1.60
2010,10,26,15,45,1.60
2010,10,26,15,46,1.60
2010,10,26,15,48,6.40
2010,10,26,15,49,3.20
2010,10,26,15,50,1.60
2010,10,26,15,52,1.60
2010,10,26,15,53,3.20
2010,10,26,15,54,1.60
2010,10,26,15,55,6.40
2010,10,26,15,56,3.20
2010,10,26,15,57,3.20
2010,10,26,15,58,6.40
2010,10,26,15,59,6.40
2010,10,26,16,00,6.40
2010,10,26,16,01,3.20
2010,10,26,16,02,3.20
2010,10,26,16,03,3.20
2010,10,26,16,05,3.20
2010,10,26,16,07,3.20
2010,10,26,16,08,1.60
2010,10,26,16,09,1.60
2010,10,26,16,10,9.60
2010,10,26,16,11,1.60
2010,10,26,16,12,3.20
2010,10,26,16,13,1.60
2010,10,26,16,14,11.30
2010,10,26,16,15,8.10
2010,10,26,16,16,3.20
2010,10,26,16,17,1.60
2010,10,26,16,18,1.60
2010,10,26,16,19,1.60
2010,10,26,16,20,1.60
2010,10,26,16,21,1.60
2010,10,26,16,23,3.20
2010,10,26,16,24,1.60
2010,10,26,16,25,1.60
2010,10,26,16,26,1.60
2010,10,26,16,27,1.60
2010,10,26,16,28,1.60
2010,10,26,16,29,1.60
2010,10,26,16,30,1.60
2010,10,26,16,31,6.40
2010,10,26,16,32,3.20
2010,10,26,16,33,1.60
2010,10,26,16,34,3.20
2010,10,26,16,35,1.60
2010,10,26,16,36,1.60
2010,10,26,16,37,3.20
2010,10,26,16,38,3.20
2010,10,26,16,39,6.40
2010,10,26,16,40,6.40
2010,10,26,16,41,6.40
2010,10,26,16,42,6.40
2010,10,26,16,43,3.20
2010,10,26,16,44,8.10
2010,10,26,16,45,3.20
2010,10,26,16,46,3.20
2010,10,26,16,47,3.20
2010,10,26,16,48,1.60
2010,10,26,16,49,1.60
2010,10,26,16,50,3.20
2010,10,26,16,51,1.60
2010,10,26,16,52,1.60
2010,10,26,16,53,3.20
2010,10,26,16,54,3.20
2010,10,26,16,55,1.60
2010,10,26,16,56,3.20
2010,10,26,16,57,3.20
2010,10,26,16,58,4.80
2010,10,26,16,59,3.20
2010,10,26,17,00,3.20
2010,10,26,17,02,3.20
2010,10,26,17,03,3.20
2010,10,26,17,04,3.20
2010,10,26,17,05,3.20
2010,10,26,17,06,3.20
2010,10,26,17,07,1.60
2010,10,26,17,08,4.80
2010,10,26,17,09,3.20
2010,10,26,17,13,1.60
2010,10,26,17,15,1.60
2010,10,26,17,17,1.60
2010,10,26,17,18,1.60
2010,10,26,17,20,1.60
2010,10,26,17,21,1.60
2010,10,26,17,22,1.60
2010,10,26,17,24,1.60
2010,10,26,17,25,3.20
2010,10,26,17,26,1.60
2010,10,26,17,27,3.20
2010,10,26,17,28,3.20
2010,10,26,17,29,4.80
2010,10,26,17,30,3.20
2010,10,26,17,32,1.60
2010,10,26,17,33,1.60
2010,10,26,17,34,1.60
2010,10,26,17,35,1.60
2010,10,26,17,36,1.60
2010,10,26,17,37,1.60
2010,10,26,17,38,1.60
2010,10,26,17,39,3.20
2010,10,26,17,40,6.40
2010,10,26,17,41,6.40
2010,10,26,17,42,4.80
2010,10,26,17,43,4.80
2010,10,26,17,44,3.20
2010,10,26,17,45,4.80
2010,10,26,17,46,3.20
2010,10,26,17,47,1.60
2010,10,26,17,48,6.40
2010,10,26,17,49,6.40
2010,10,26,17,50,3.20
2010,10,26,17,51,1.60
2010,10,26,17,52,1.60
2010,10,26,17,53,4.80
2010,10,26,17,54,3.20
2010,10,26,17,55,1.60
2010,10,26,17,56,1.60
2010,10,26,17,58,1.60
2010,10,26,17,59,1.60
2010,10,26,18,02,1.60
2010,10,26,18,03,4.80
2010,10,26,18,04,1.60
2010,10,26,18,05,1.60
2010,10,26,18,06,1.60
2010,10,26,18,07,1.60
2010,10,26,18,11,1.60
2010,10,26,18,12,1.60
2010,10,26,18,14,4.80
2010,10,26,18,15,3.20
2010,10,26,18,16,1.60
2010,10,26,18,17,3.20
2010,10,26,18,18,4.80
2010,10,26,18,19,1.60
2010,10,26,18,20,1.60
2010,10,26,18,23,3.20
2010,10,26,18,24,1.60
2010,10,26,18,25,3.20
2010,10,26,18,26,1.60
2010,10,26,18,27,4.80
2010,10,26,18,28,4.80
2010,10,26,18,29,3.20
2010,10,26,18,30,3.20
2010,10,26,18,31,3.20
2010,10,26,18,32,1.60
2010,10,26,18,33,1.60
2010,10,26,18,35,1.60
2010,10,26,18,37,1.60
2010,10,26,18,38,1.60
2010,10,26,18,39,3.20
2010,10,26,18,40,3.20
2010,10,26,18,41,3.20
2010,10,26,18,42,4.80
2010,10,26,18,43,3.20
2010,10,26,18,44,4.80
2010,10,26,18,45,3.20
2010,10,26,18,46,3.20
2010,10,26,18,47,3.20
2010,10,26,18,48,4.80
2010,10,26,18,49,3.20
2010,10,26,18,50,4.80
2010,10,26,18,51,4.80
2010,10,26,18,52,3.20
2010,10,26,18,53,3.20
2010,10,26,18,54,4.80
2010,10,26,18,55,3.20
2010,10,26,18,56,3.20
2010,10,26,18,57,3.20
2010,10,26,18,58,3.20
2010,10,26,18,59,4.80
2010,10,26,19,00,3.20
2010,10,26,19,01,4.80
2010,10,26,19,02,3.20
2010,10,26,19,03,3.20
2010,10,26,19,04,4.80